Regional Weather Roundup
Issued by NWS Columbia, SC

Home | Current Version | Previous Version | Text Only | Print | Product List | Glossary On
Versions: 1 2 3 4 5 6 7 8 9 10 11 12 13 14 15 16 17 18 19 20 21 22 23 24 25 26
000
ASUS42 KCAE 271710
RWRCAE
REGIONAL WEATHER ROUNDUP
NATIONAL WEATHER SERVICE COLUMBIA SC
100 PM EDT THU JUL 27 2017

NOTE: "FAIR" INDICATES FEW OR NO CLOUDS BELOW 12,000 FEET WITH NO
SIGNIFICANT WEATHER AND/OR OBSTRUCTIONS TO VISIBILITY.

NOT ALL STATIONS ARE QUALITY CONTROLLED BY THE NATIONAL
WEATHER SERVICE. USE DATA WITH CAUTION...ESPECIALLY
DEWPOINT OBSERVATIONS.

SCZ001>056-GAZ040-063>065-077-271800-
...UPSTATE SOUTH CAROLINA...

CITY           SKY/WX    TMP DP  RH WIND       PRES   REMARKS
ANDERSON       MOSUNNY   88  69  53 W8        30.06F
LIBERTY        CLOUDY    86  73  64 W5        30.05F
SPARTANBURG    PTSUNNY   84  70  61 SW7       30.05F
CLEMSON        MOSUNNY   88  73  61 VRB6      30.07F HX  95
GREENVILLE     MOSUNNY   90  69  50 SW9       30.06F
GREENWOOD      PTSUNNY   86  70  58 SW5       30.07F
GREER          MOSUNNY   87  70  56 SW12      30.04F
ROCK HILL      MOSUNNY   88  72  58 SW9       30.05F
CHESTER        MOSUNNY   84  68  58 S6        30.06F
LAURENS        MOSUNNY   86  72  62 S6        30.05F


...CENTRAL SOUTH CAROLINA...

CITY           SKY/WX    TMP DP  RH WIND       PRES   REMARKS
COLUMBIA APT   MOSUNNY   86  72  62 E5        30.04F
COLUMBIA OWENS PTSUNNY   86  70  58 S5        30.05F
MCENTIRE ANGB  MOSUNNY   87  73  64 CALM      30.04F
ORANGEBURG     SUNNY     88  71  57 CALM      30.04F
SUMTER SHAW    MOSUNNY   88  72  57 S7        30.01F HX  95
AIKEN          FAIR      84  72  65 CALM      30.09F
BARNWELL       FAIR      88  73  62 CALM      30.04F HX  96
MANNING        FAIR      86  75  70 CALM      30.02F HX  95
CAMDEN         FAIR      86  72  62 CALM      30.05F
LANCASTER      SUNNY     86  72  62 SW7       30.05F
WINNSBORO      MOSUNNY   84  70  61 S8        30.06F


...EASTERN AND COASTAL SOUTH CAROLINA...

CITY           SKY/WX    TMP DP  RH WIND       PRES   REMARKS
MYRTLE BEACH   MOSUNNY   86  75  70 SE12      30.04F HX  95
N MYRTLE BCH   SUNNY     85  75  72 SE12      30.03F
CONWAY         FAIR      86  72  62 SE5       30.02F
MARION         PTSUNNY   86  70  58 CALM      30.03F
HARTSVILLE     FAIR      88  72  58 SW5       30.04F
FLORENCE       MOSUNNY   87  73  62 VRB6      30.03F
DARLINGTON     MOSUNNY   86  74  67 S6        30.04F
CHARLESTON APT MOSUNNY   86  69  56 CALM      30.02F
MOUNT PLEASANT FAIR      86  73  66 SW3       30.03F
BEAUFORT       CLOUDY    83  75  77 CALM      30.03F


...EASTERN GEORGIA...

CITY           SKY/WX    TMP DP  RH WIND       PRES   REMARKS
AUGUSTA BUSH F PTSUNNY   88  75  65 VRB3      30.04F HX  97
AUGUSTA DANIEL MOSUNNY   88  70  55 VRB3      30.06F
THOMSON        PTSUNNY   84  72  65 SE5       30.11F
WASHINGTON     PTSUNNY  N/A N/A N/A CALM      30.06F
CLAXTON        PTSUNNY   86  75  70 NE7       30.02F
SYLVANIA       PTSUNNY   83  77  81 SE6       30.04F
STATESBORO     CLOUDY    84  69  61 E7        30.03F
SAVANNAH       LGT RAIN  78  75  90 NE3       30.03F


...SOUTHERN NORTH CAROLINA...

CITY           SKY/WX    TMP DP  RH WIND       PRES   REMARKS
CHARLOTTE      PTSUNNY   87  72  60 SW9       30.05F
MONROE         MOSUNNY   85  70  60 S6        30.04F
ROCKINGHAM     MOSUNNY   86  72  62 S6        30.04F
RUTHERFORDTON  PTSUNNY   84  72  66 S8G16     30.06F
ASHEVILLE      RAIN      72  71  97 NW7       30.13R FOG

$$




USA.gov is the U.S. government's official web portal to all federal, state and local government web resources and services.